Location: Godiavel Galaoual
(15.2485°N, 12.6604°W)
Time: 10:23:13
(UTC+00:00)

Hubble Space Telescope - Pass Details

Date: 19 May 2021
Orbit: 535 x 539 km, 28.5° (Epoch: 19 June)

Event Time Altitude Azimuth Distance (km) Brightness Sun altitude
Exits shadow 05:17:00 20° 284° (WNW) 1,276 2.2 -15.0°
Maximum altitude 05:19:19 36° 339° (NNW) 853 1.8 -14.5°
Drops below altitude 10° 05:23:07 10° 47° (NE) 1,774 4.7 -13.7°
Sets 05:25:30 0° 56° (NE) 2,663 6.2 -13.1°
